Temperature
17 17 17 16 16 16 16 16 15 15 15 15 15 14 14 14 14 14 14 14 13 13 13 13 13 13 13 13 13 13 13 13 13 13 13 13 13 13 14 14 14 14 14
17 17 17 16 16 16 16 16 15 15 15 15 14 14 14 14 14 14 14 13 13 13 13 13 13 13 13 13 13 13 13 13 13 13 13 13 13 13 13 13 14 14 14
17 17 16 16 16 16 16 15 15 15 15 14 14 14 14 14 14 13 13 13 13 13 13 13 13 13 13 12 12 12 12 12 12 12 12 12 13 13 13 13 13 13 14
17 17 16 16 16 16 15 15 15 15 14 14 14 14 14 13 13 13 13 13 13 13 13 12 12 12 12 12 12 12 12 12 12 12 12 12 12 12 12 13 13 13 13
17 16 16 16 16 16 15 15 15 14 14 14 14 13 13 13 13 13 13 13 12 12 12 12 12 12 12 12 12 12 12 12 11 12 12 12 12 12 12 12 12 12 13
17 16 16 16 16 15 15 15 14 14 14 14 13 13 13 13 13 13 13 12 12 12 12 12 12 12 12 12 12 12 12 11 11 11 11 11 11 11 11 11 11 12 12
16 16 16 16 15 15 15 15 14 14 14 13 13 13 13 13 13 13 13 12 12 12 12 11 11 11 11 11 11 11 11 11 11 11 11 11 11 11 11 11 11 11 11
16 16 16 15 15 15 15 14 14 13 13 13 13 13 13 13 13 13 12 12 11 11 11 11 11 11 11 11 10 10 10 10 10 10 10 10 10 10 10 10 10 10 11
16 16 16 15 15 15 14 14 14 13 13 13 13 12 12 12 12 12 12 11 11 11 11 11 11 10 11 11 10 10 10 10 10 10 10 10 10 10 10 10 10 10 10
16 16 15 15 15 14 14 14 13 13 13 12 12 12 12 11 12 12 12 11 11 11 11 10 11 10 10 10 10 9 9 9 9 9 9 9 9 9 9 9 9 9 9
16 16 15 15 14 14 14 14 13 13 12 12 12 12 11 11 11 11 11 11 10 10 10 10 10 10 10 10 10 9 9 9 9 9 9 9 9 9 9 9 9 9 9
16 16 15 15 14 14 14 13 13 12 12 11 11 11 11 11 11 11 11 10 10 10 9 9 9 10 9 9 9 9 9 9 8 8 8 8 8 8 8 8 8 8 8
16 15 15 14 14 14 13 13 12 12 11 11 11 11 10 10 10 10 10 10 10 10 9 9 9 9 9 9 9 8 8 8 8 8 8 8 8 8 8 8 8 8 8
16 15 14 14 13 13 13 12 12 12 11 11 11 10 10 10 10 10 9 9 9 9 9 9 9 9 8 8 8 8 8 8 7 7 7 7 7 7 7 7 7 7 7
15 15 14 14 13 13 12 12 12 12 11 11 11 10 10 10 9 10 9 9 9 8 8 8 8 8 8 8 8 8 7 7 7 7 7 7 7 6 6 6 6 6 6
15 14 14 13 13 13 12 12 12 12 11 11 11 10 10 10 10 9 9 9 9 8 8 8 8 7 7 7 7 7 7 7 7 6 6 6 6 6 6 6 6 6 6
15 14 14 13 13 12 12 12 11 11 11 11 11 10 10 10 9 9 9 9 8 8 8 7 7 7 7 7 7 6 6 6 6 6 6 6 5 5 5 5 5 5 5
14 14 14 13 13 12 12 11 11 11 11 10 10 10 10 10 9 9 9 8 8 8 7 7 7 7 7 6 6 6 6 6 6 5 5 5 5 5 5 5 5 4 5
14 13 13 13 12 12 11 11 11 10 10 10 10 10 10 9 9 9 8 8 8 7 7 7 7 7 6 6 6 6 5 5 5 5 5 5 4 4 4 4 4 4 4
14 13 13 12 12 12 11 11 10 10 10 10 9 9 9 9 9 8 8 8 7 7 7 7 6 6 6 6 5 5 5 5 5 4 4 4 4 4 3 3 3 3 3
13 13 12 12 11 11 11 10 10 10 9 9 9 9 9 8 8 8 8 7 7 7 7 6 6 6 5 5 5 5 4 4 4 4 4 3 3 3 3 3 3 3 2
12 12 12 11 11 11 10 10 10 9 9 9 9 9 8 8 8 7 7 7 7 6 6 6 5 5 5 4 4 4 4 4 3 3 3 3 3 2 2 2 2 2 2
12 11 11 11 11 10 10 10 9 9 9 8 8 8 8 7 7 7 7 6 6 6 6 5 5 5 4 4 4 3 3 3 3 2 2 2 2 2 2 2 2 2 2
11 11 11 10 10 10 9 9 9 9 8 8 8 7 7 7 7 6 6 6 5 5 5 5 4 4 4 3 3 3 2 2 2 2 1 1 1 1 1 1 1 1 1
10 10 10 10 9 9 9 8 8 8 8 7 7 7 6 6 6 6 5 5 5 4 4 4 4 3 3 3 3 2 2 2 2 1 1 1 1 1 1 1 1 1 1
10 9 9 9 8 8 8 7 7 7 7 7 6 6 6 6 5 5 5 4 4 4 4 3 3 3 3 2 2 2 2 1 1 1 1 0 0 0 0 0 0 0 0
Wind_Speed
7 6 6 5 4 4 3 3 2 2 3 3 3 4 4 4 5 5 5 5 5 5 5 6 6 6 5 5 5 4 4 4 4 4 4 5 5 6 5 5 5 5 3
8 7 6 6 5 4 4 3 2 3 3 3 3 3 4 4 4 5 4 4 5 5 5 5 6 5 6 5 5 5 5 5 5 6 5 5 6 6 6 6 5 5 5
8 8 7 6 5 4 4 3 2 2 2 2 2 2 3 3 3 3 4 4 4 4 5 5 5 6 6 5 5 5 5 5 5 5 6 5 6 6 6 6 6 5 6
9 8 7 6 5 4 4 3 2 3 2 2 2 2 2 2 3 3 3 3 3 4 4 4 5 6 6 6 5 6 5 5 5 5 5 6 6 6 6 6 6 5 6
9 8 7 6 5 5 5 4 3 3 3 3 2 2 3 2 3 4 3 3 3 3 4 4 5 6 7 7 6 7 7 6 5 6 6 6 6 6 7 7 7 7 7
10 9 7 7 6 6 5 4 4 4 3 3 3 3 3 3 5 6 5 2 3 3 4 4 4 4 4 3 5 6 7 7 7 7 7 8 8 8 7 8 8 8 7
10 9 8 8 7 6 5 5 4 4 3 3 3 3 3 4 4 4 5 4 3 4 4 4 4 4 6 6 4 4 4 4 6 8 9 9 9 9 10 10 9 9 9
11 10 9 8 7 6 6 5 4 4 3 3 3 3 2 3 4 3 4 2 2 3 4 4 5 5 7 8 8 7 7 6 6 7 8 9 9 10 10 11 11 11 11
11 11 10 9 8 7 6 5 4 4 4 3 3 2 2 2 3 1 5 2 2 3 3 4 5 5 7 10 9 8 8 7 4 6 9 10 12 12 11 9 9 9 10
12 11 10 9 8 8 7 5 5 4 4 3 3 2 1 1 2 1 6 3 3 3 3 3 3 5 7 10 9 8 9 9 10 9 9 9 10 8 9 9 9 9 10
11 11 10 9 8 7 6 5 5 4 4 3 3 2 2 1 2 0 4 4 4 4 4 4 3 3 7 9 10 9 9 11 11 10 9 9 9 8 8 8 8 8 10
12 11 10 9 8 7 7 6 5 5 5 4 3 3 2 2 1 1 3 5 7 6 6 5 4 4 8 10 9 9 10 11 9 8 9 9 9 8 8 9 11 11 11
13 12 11 10 8 7 7 7 6 5 4 4 4 3 3 2 2 3 4 5 6 6 6 6 7 8 9 9 8 9 10 8 8 9 9 9 9 9 9 9 11 11 13
14 12 11 10 9 8 6 6 6 5 5 5 4 4 4 4 4 3 4 4 5 7 7 6 8 9 9 9 9 8 8 8 9 9 10 10 9 9 9 9 9 9 10
13 12 11 9 9 8 7 6 6 6 5 5 4 4 4 5 3 3 5 5 6 6 8 8 8 8 8 8 8 8 8 8 9 9 10 10 10 10 10 9 9 10 11
12 11 9 8 8 7 7 6 6 6 4 6 6 7 6 5 4 6 8 9 9 8 8 8 9 9 9 9 9 9 9 9 9 10 10 10 10 10 11 10 10 11 11
12 11 9 8 8 7 7 7 6 7 9 10 11 11 11 9 8 9 9 10 10 9 8 9 9 9 10 10 10 10 10 10 10 10 11 11 11 11 11 11 11 11 12
12 10 9 8 7 7 7 7 6 6 6 7 10 13 13 12 12 11 10 8 8 8 8 9 10 10 10 10 10 11 11 10 10 10 11 11 11 11 12 12 12 13 13
11 8 8 7 7 7 7 7 7 8 7 7 7 7 10 11 12 12 9 8 9 9 9 10 10 10 10 10 10 11 11 11 11 11 11 12 11 12 12 12 13 14 13
9 8 8 7 7 7 7 7 7 7 8 8 8 8 6 6 7 8 8 9 9 10 10 10 10 10 10 10 10 10 11 11 12 11 11 12 12 12 13 14 13 13 13
8 9 10 8 7 7 7 7 7 7 8 8 8 8 6 8 9 9 9 9 9 10 10 10 10 10 10 10 10 11 12 11 11 11 12 12 12 13 13 13 13 13 13
8 7 8 8 7 7 7 7 8 8 9 10 9 8 7 9 9 9 9 9 10 10 10 10 10 9 9 10 11 11 12 12 12 12 12 12 12 13 13 13 13 13 13
7 7 7 7 7 7 7 8 8 8 8 9 9 8 8 8 9 9 9 10 9 10 9 9 10 10 10 11 11 11 12 12 12 12 13 13 13 13 13 14 16 16 15
7 7 7 7 6 6 7 7 7 8 8 8 8 8 8 8 9 10 10 9 9 9 10 10 11 13 15 13 13 13 13 14 15 14 16 15 15 14 14 14 15 17 16
6 6 6 6 6 6 6 7 7 8 8 8 8 9 9 9 9 9 9 9 11 11 12 12 11 12 15 16 16 15 15 16 17 17 16 14 16 17 16 17 16 17 17
6 6 6 6 6 6 6 7 7 8 8 8 8 9 9 9 9 9 9 9 10 10 11 11 13 15 16 16 17 17 17 18 19 19 17 14 16 16 17 15 18 16 17
Wind_Direction
163 160 157 151 148 142 124 109 107 108 108 94 75 68 64 57 56 56 46 43 37 43 42 40 36 26 20 17 9 2 354 343 325 328 338 337 333 331 333 325 313 300 290
162 161 157 150 154 150 135 125 124 113 105 102 90 78 67 57 50 49 44 39 35 33 32 31 30 27 19 14 5 1 358 346 329 327 327 335 332 331 326 315 308 302 298
161 161 157 155 157 150 143 131 127 121 124 120 112 85 71 62 57 50 45 39 37 32 25 19 17 15 9 9 358 358 351 346 335 321 325 329 322 327 322 312 306 302 294
162 163 160 158 156 153 142 139 131 127 129 119 111 91 74 63 47 37 38 30 30 30 26 19 13 8 1 354 350 349 342 333 330 324 321 322 321 324 316 317 312 308 297
165 164 160 155 150 146 140 137 132 129 126 116 109 97 78 59 34 13 24 17 16 17 16 18 22 15 8 355 346 340 334 325 322 320 319 318 319 324 325 320 309 307 297
167 165 158 159 151 150 144 141 135 129 121 116 110 93 80 63 41 11 346 4 7 6 4 1 8 5 5 347 347 340 334 324 323 318 314 314 318 320 320 310 307 303 300
169 165 162 161 155 153 146 144 143 142 131 124 113 106 91 72 58 29 354 344 353 358 353 355 359 359 339 344 338 287 299 298 301 307 308 311 311 316 312 306 301 297 293
170 167 164 163 159 156 155 156 159 154 145 138 126 120 109 84 71 37 329 314 349 352 352 348 343 348 4 345 329 325 325 325 317 305 305 306 308 308 303 298 296 291 286
171 169 168 167 165 165 166 166 162 159 156 152 141 148 146 119 94 7 300 314 317 332 343 346 343 344 15 336 322 322 320 319 309 294 296 292 291 288 291 290 290 289 288
172 169 168 168 168 168 170 168 163 166 166 164 159 174 181 172 97 338 299 297 306 318 323 321 7 348 347 328 320 320 316 319 317 309 295 285 287 285 271 278 288 288 288
166 164 166 170 171 168 167 167 169 172 177 185 180 193 211 238 145 240 306 299 307 303 303 304 322 350 322 318 311 312 322 316 307 303 302 303 301 299 296 292 290 285 285
162 165 167 170 170 169 169 173 177 177 185 196 209 211 223 222 245 216 280 291 307 298 297 299 314 323 308 304 301 314 312 302 297 301 302 302 302 302 302 303 298 288 282
165 168 171 171 173 175 176 179 183 189 201 208 218 229 233 241 228 219 249 264 273 280 290 309 307 296 291 284 279 290 293 292 297 298 299 301 302 301 302 299 294 291 288
170 172 174 176 177 181 186 192 195 200 209 219 227 238 246 248 257 263 269 267 257 267 281 281 264 265 268 282 290 282 285 293 296 293 296 298 300 298 294 296 296 296 294
174 176 178 181 183 190 194 203 209 211 218 227 233 241 249 257 272 300 287 284 290 296 300 289 286 287 289 290 291 293 293 292 291 292 293 295 296 296 295 297 296 294 291
177 180 182 183 187 194 200 205 214 234 220 235 254 263 257 262 282 269 270 278 284 287 285 282 285 287 289 292 293 293 292 292 293 294 294 294 294 294 295 295 293 291 291
182 181 182 186 189 197 204 214 219 219 224 232 235 240 250 263 259 260 263 267 266 260 267 277 282 286 287 289 290 291 292 292 293 292 292 293 294 293 292 292 292 292 291
184 180 182 187 194 202 210 217 226 234 235 239 231 228 236 245 250 254 255 261 264 252 264 274 280 283 286 287 289 289 290 291 291 290 290 292 292 291 291 290 290 292 293
185 185 188 193 199 208 214 221 230 238 246 251 255 235 224 237 242 246 242 255 266 270 271 274 278 282 284 286 288 289 289 289 290 290 290 291 291 290 290 290 290 290 288
187 183 188 196 202 209 216 225 234 241 247 253 256 261 253 245 255 255 247 255 263 269 273 277 279 282 284 285 287 287 287 287 288 288 289 290 290 289 288 288 289 289 287
188 186 189 204 211 216 224 231 239 245 251 256 260 260 253 259 263 265 265 263 265 270 274 278 281 282 282 284 285 284 285 287 289 289 290 290 291 290 288 287 287 287 286
192 194 198 209 217 224 232 239 245 250 254 260 266 262 229 250 262 266 267 268 269 271 275 277 278 279 280 281 283 285 286 287 288 290 290 291 290 289 289 288 286 286 287
199 202 206 213 220 222 232 243 248 253 258 262 265 267 261 259 263 267 270 274 276 277 277 277 279 281 283 283 282 282 283 287 291 294 293 292 290 289 288 287 287 288 286
202 208 213 218 222 230 237 244 250 254 258 263 265 267 269 270 272 274 276 278 278 278 279 281 282 285 287 287 286 283 283 288 293 292 291 289 289 287 285 284 284 284 284
205 210 214 219 225 232 240 246 252 256 261 264 268 270 273 274 275 277 278 279 281 280 282 284 284 285 286 286 286 286 289 291 288 289 290 288 285 283 283 282 282 284 284
204 211 218 224 230 237 244 251 257 263 266 268 270 273 275 276 277 279 280 280 283 283 284 285 284 285 287 288 288 291 292 290 287 284 285 287 284 281 282 281 282 281 283
Height
1564 1565 1567 1567 1568 1568 1569 1568 1569 1569 1569 1568 1568 1568 1567 1566 1565 1564 1563 1562 1562 1561 1560 1559 1557 1556 1555 1554 1553 1552 1551 1551 1549 1548 1547 1546 1544 1543 1542 1541 1541 1540 1540
1563 1564 1566 1566 1567 1568 1568 1568 1568 1568 1569 1568 1568 1568 1567 1566 1566 1565 1564 1563 1562 1561 1560 1559 1558 1557 1556 1555 1553 1552 1551 1550 1549 1547 1546 1545 1543 1542 1540 1539 1539 1538 1537
1561 1563 1564 1565 1566 1567 1567 1567 1567 1568 1568 1568 1568 1568 1567 1567 1566 1565 1564 1564 1563 1562 1561 1560 1558 1557 1556 1554 1553 1552 1551 1549 1548 1546 1545 1543 1541 1540 1538 1537 1537 1535 1535
1560 1561 1563 1564 1565 1565 1566 1566 1567 1567 1567 1567 1567 1567 1567 1566 1566 1565 1565 1564 1563 1562 1560 1559 1558 1557 1555 1554 1553 1551 1550 1548 1547 1545 1544 1542 1540 1538 1537 1536 1534 1533 1532
1558 1560 1561 1562 1563 1564 1564 1565 1565 1565 1566 1566 1566 1566 1566 1566 1565 1565 1564 1563 1563 1562 1560 1559 1557 1555 1554 1553 1551 1550 1548 1547 1546 1544 1542 1540 1539 1537 1535 1533 1532 1530 1529
1556 1558 1559 1561 1562 1562 1563 1563 1564 1564 1565 1565 1565 1565 1565 1564 1564 1563 1563 1562 1562 1561 1560 1558 1557 1555 1553 1551 1550 1548 1546 1545 1544 1542 1540 1539 1537 1535 1533 1531 1529 1528 1526
1554 1556 1558 1559 1560 1561 1562 1562 1563 1563 1563 1563 1564 1564 1563 1563 1562 1562 1561 1561 1560 1559 1558 1557 1555 1553 1551 1550 1548 1546 1544 1542 1541 1540 1538 1536 1534 1532 1530 1528 1526 1524 1522
1552 1554 1555 1557 1558 1559 1560 1561 1561 1562 1562 1562 1562 1562 1562 1561 1561 1560 1560 1559 1558 1557 1556 1555 1554 1552 1549 1547 1546 1544 1542 1540 1538 1536 1535 1532 1530 1528 1526 1524 1522 1520 1517
1549 1551 1553 1555 1556 1557 1558 1559 1560 1560 1560 1561 1561 1560 1560 1560 1559 1559 1558 1557 1557 1556 1554 1553 1551 1549 1547 1544 1543 1541 1539 1537 1534 1532 1530 1527 1525 1523 1521 1519 1517 1516 1513
1546 1549 1551 1552 1554 1555 1556 1557 1558 1558 1558 1559 1559 1559 1558 1558 1557 1557 1556 1556 1555 1554 1552 1550 1548 1546 1544 1542 1540 1538 1536 1533 1531 1528 1525 1523 1521 1519 1517 1515 1513 1511 1509
1543 1546 1548 1550 1551 1553 1554 1555 1555 1556 1556 1557 1557 1557 1556 1556 1555 1554 1554 1553 1552 1551 1550 1548 1546 1543 1541 1539 1536 1535 1532 1529 1526 1524 1522 1519 1517 1515 1513 1511 1509 1506 1504
1540 1543 1545 1547 1549 1550 1551 1552 1553 1553 1554 1554 1555 1555 1554 1554 1553 1552 1551 1550 1549 1548 1546 1545 1542 1540 1537 1535 1533 1530 1527 1524 1522 1520 1518 1515 1512 1510 1507 1505 1502 1500 1498
1537 1540 1542 1544 1546 1547 1549 1550 1550 1551 1552 1552 1552 1552 1552 1551 1550 1549 1548 1547 1545 1544 1542 1540 1538 1536 1533 1531 1528 1526 1523 1521 1518 1516 1513 1510 1508 1505 1501 1499 1496 1493 1491
1534 1537 1539 1541 1543 1545 1546 1547 1548 1548 1549 1549 1550 1549 1549 1548 1548 1546 1545 1544 1542 1541 1539 1536 1534 1531 1529 1527 1524 1522 1519 1517 1514 1511 1508 1505 1502 1499 1496 1493 1490 1487 1484
1531 1533 1536 1538 1540 1541 1543 1543 1544 1545 1545 1546 1546 1546 1545 1545 1544 1543 1542 1540 1539 1537 1534 1532 1530 1528 1526 1523 1520 1518 1515 1512 1509 1506 1503 1500 1497 1494 1491 1488 1485 1482 1479
1527 1529 1532 1534 1536 1538 1539 1540 1540 1541 1541 1541 1541 1542 1541 1541 1539 1538 1537 1536 1534 1532 1530 1528 1526 1524 1521 1519 1516 1513 1510 1507 1504 1501 1498 1495 1492 1489 1486 1483 1480 1476 1473
1523 1525 1528 1530 1532 1533 1535 1536 1537 1537 1537 1537 1537 1537 1536 1536 1535 1534 1532 1531 1529 1527 1525 1523 1521 1519 1516 1514 1511 1508 1505 1502 1499 1496 1492 1489 1486 1483 1480 1477 1474 1471 1467
1519 1521 1524 1526 1528 1529 1530 1531 1532 1532 1532 1532 1532 1531 1531 1530 1529 1528 1527 1525 1523 1522 1520 1518 1516 1513 1511 1508 1505 1502 1499 1496 1493 1490 1487 1484 1481 1477 1474 1471 1468 1464 1461
1515 1517 1519 1521 1523 1525 1526 1526 1527 1527 1527 1527 1527 1526 1525 1524 1523 1523 1521 1519 1518 1516 1515 1512 1510 1507 1504 1502 1499 1496 1493 1490 1487 1484 1481 1477 1474 1471 1467 1464 1461 1457 1454
1510 1513 1515 1517 1518 1520 1521 1521 1522 1522 1522 1521 1521 1520 1520 1518 1517 1516 1515 1513 1511 1510 1508 1506 1503 1501 1498 1495 1492 1489 1486 1483 1480 1477 1474 1471 1468 1464 1460 1457 1454 1450 1447
1506 1508 1510 1512 1514 1515 1515 1516 1516 1516 1516 1515 1515 1514 1513 1512 1510 1509 1508 1506 1505 1503 1501 1498 1496 1493 1491 1488 1485 1482 1479 1476 1473 1470 1466 1463 1460 1457 1453 1450 1446 1443 1439
1501 1503 1505 1507 1508 1509 1510 1510 1510 1510 1510 1509 1508 1507 1506 1505 1503 1502 1501 1499 1498 1496 1494 1491 1489 1486 1483 1481 1478 1475 1472 1468 1465 1462 1459 1456 1452 1449 1445 1442 1438 1435 1432
1496 1498 1500 1501 1502 1503 1504 1504 1504 1504 1503 1503 1502 1501 1500 1498 1497 1495 1494 1492 1490 1488 1486 1484 1481 1478 1476 1473 1470 1467 1464 1461 1458 1455 1451 1448 1444 1441 1438 1434 1430 1427 1424
1491 1493 1494 1496 1497 1497 1498 1498 1498 1498 1497 1496 1495 1494 1493 1492 1490 1488 1487 1485 1483 1480 1478 1476 1473 1470 1468 1465 1462 1459 1456 1453 1450 1447 1443 1439 1436 1432 1429 1426 1422 1419 1416
1486 1488 1489 1490 1491 1491 1492 1492 1492 1491 1491 1490 1489 1488 1487 1485 1483 1481 1480 1478 1475 1473 1471 1468 1465 1462 1459 1456 1454 1451 1448 1445 1442 1438 1434 1430 1426 1423 1420 1417 1414 1410 1407
1481 1482 1483 1484 1485 1485 1486 1486 1485 1485 1484 1483 1482 1481 1480 1478 1476 1474 1472 1470 1468 1465 1463 1460 1457 1454 1451 1448 1445 1442 1439 1435 1432 1429 1425 1421 1417 1413 1411 1407 1404 1401 1398